GW4788 Weather Reports


Display with metric or nautical units.
time (UTC)temp
F
wind
direction
speed
MPH
gust
MPH
rain 1hr
in
rain 24hr
in
rain mn
in
humidity
%
barometer
mb
20260508145519 56 201 2.0 4.0 0.00 0.00 0.00 61 1013.1
20260508144519 55 205 1.0 3.0 0.00 0.00 0.00 63 1013.1
20260508143516 55 189 1.0 3.0 0.00 0.00 0.00 63 1013.1
20260508142520 55 211 1.0 3.0 0.00 0.00 0.00 63 1013.2
20260508141520 55 219 2.0 5.0 0.00 0.00 0.00 61 1013.2
20260508140520 55 232 2.0 5.0 0.00 0.00 0.00 61 1013.2
20260508135520 55 216 1.0 3.0 0.00 0.00 0.00 61 1013.1
20260508134517 54 212 2.0 5.0 0.00 0.00 0.00 61 1013.1
20260508133537 54 211 1.0 4.0 0.00 0.00 0.00 62 1013.2
20260508132540 54 210 2.0 5.0 0.00 0.00 0.00 61 1013.1
20260508131520 54 220 3.0 8.0 0.00 0.00 0.00 61 1012.9
20260508130517 54 204 2.0 7.0 0.00 0.00 0.00 61 1012.9
20260508125517 53 219 2.0 4.0 0.00 0.00 0.00 63 1012.9
20260508124517 52 212 2.0 6.0 0.00 0.00 0.00 64 1013.0
20260508123538 51 184 1.0 3.0 0.00 0.00 0.00 66 1012.9
20260508122521 51 196 2.0 4.0 0.00 0.00 0.00 66 1012.7
20260508121518 50 193 2.0 4.0 0.00 0.00 0.00 66 1012.8
20260508120518 50 183 1.0 3.0 0.00 0.00 0.00 68 1012.9
20260508115518 50 189 1.0 4.0 0.00 0.00 0.00 67 1012.9
20260508114518 49 214 2.0 6.0 0.00 0.00 0.00 68 1012.7
20260508113518 48 190 1.0 4.0 0.00 0.00 0.00 70 1012.7
20260508112518 47 223 1.0 3.0 0.00 0.00 0.00 71 1012.6
20260508111524 46 190 1.0 4.0 0.00 0.00 0.00 73 1012.8
20260508110518 46 172 1.0 4.0 0.00 0.00 0.00 74 1012.8
20260508105548 46 159 1.0 2.0 0.00 0.00 0.00 73 1012.8
20260508104519 46 191 1.0 4.0 0.00 0.00 0.00 73 1012.6
20260508103516 45 174 1.0 2.0 0.00 0.00 0.00 74 1012.6
20260508102519 45 180 1.0 4.0 0.00 0.00 0.00 75 1012.5
20260508101539 45 189 1.0 3.0 0.00 0.00 0.00 76 1012.5
20260508100519 45 186 1.0 4.0 0.00 0.00 0.00 75 1012.4
20260508095520 45 186 1.0 3.0 0.00 0.00 0.00 75 1012.4
20260508094517 45 181 1.0 3.0 0.00 0.00 0.00 74 1012.5
20260508093517 45 166 1.0 3.0 0.00 0.00 0.00 75 1012.5
20260508092520 45 153 1.0 2.0 0.00 0.00 0.00 75 1012.5
20260508091541 45 169 1.0 2.0 0.00 0.00 0.00 75 1012.6
20260508090517 45 153 1.0 2.0 0.00 0.00 0.00 76 1012.7
20260508085517 44 165 1.0 1.0 0.00 0.00 0.00 78 1012.7
20260508084517 43 194 1.0 3.0 0.00 0.00 0.00 81 1012.7
20260508083520 43 177 1.0 2.0 0.00 0.00 0.00 83 1012.7
20260508082520 43 203 0.0 1.0 0.00 0.00 0.00 84 1012.8
20260508081537 44 187 0.0 2.0 0.00 0.00 0.00 84 1012.8
20260508080517 44 155 0.0 2.0 0.00 0.00 0.00 83 1012.7
20260508075517 44 201 0.0 2.0 0.00 0.00 0.00 82 1012.9
20260508074521 45 208 0.0 1.0 0.00 0.00 0.00 81 1012.9
20260508073520 46 166 1.0 4.0 0.00 0.00 0.00 79 1013.0
20260508072518 47 174 1.0 3.0 0.00 0.00 0.00 77 1013.0
20260508071520 48 169 0.0 2.0 0.00 0.00 0.00 74 1013.1
20260508070518 49 307 0.0 1.0 0.00 0.00 0.00 73 1013.3
20260508065559 49 172 1.0 1.0 0.00 0.00 0.00 70 1013.3
20260508064519 50 177 1.0 2.0 0.00 0.00 0.00 69 1013.2
20260508063600 50 359 0.0 2.0 0.00 0.00 0.00 68 1013.3
20260508062519 50 40 0.0 2.0 0.00 0.00 0.00 65 1013.3
20260508061519 50 31 0.0 3.0 0.00 0.00 0.00 66 1013.4
20260508060518 51 60 0.0 1.0 0.00 0.00 0.00 64 1013.2
20260508055519 51 312 0.0 1.0 0.00 0.00 0.00 62 1013.1
20260508054539 51 209 1.0 2.0 0.00 0.00 0.00 62 1012.9
20260508053519 51 206 1.0 2.0 0.00 0.00 0.00 62 1012.8
20260508052519 51 223 1.0 3.0 0.00 0.00 0.00 62 1012.8
20260508051519 51 220 1.0 3.0 0.00 0.00 0.00 61 1012.9
20260508050517 50 214 1.0 4.0 0.00 0.00 0.00 62 1012.9
20260508045519 50 199 1.0 3.0 0.00 0.00 0.00 62 1013.0
20260508044520 50 163 1.0 2.0 0.00 0.00 0.00 64 1013.0
20260508043520 49 211 1.0 2.0 0.00 0.00 0.00 66 1013.0
20260508042517 49 215 1.0 2.0 0.00 0.00 0.00 66 1013.1
20260508041517 48 176 1.0 2.0 0.00 0.00 0.00 69 1013.0
20260508040517 47 208 1.0 2.0 0.00 0.00 0.00 76 1013.1
20260508035537 47 221 0.0 1.0 0.00 0.00 0.00 77 1013.1
20260508034520 47 172 1.0 2.0 0.00 0.00 0.00 76 1013.1
20260508033520 47 169 1.0 2.0 0.00 0.00 0.00 77 1013.2
20260508032517 47 185 1.0 1.0 0.00 0.00 0.00 75 1013.1
20260508031518 46 269 0.0 1.0 0.00 0.00 0.00 77 1013.0
20260508030517 46 199 1.0 2.0 0.00 0.00 0.00 75 1013.0
20260508025518 46 220 0.0 4.0 0.00 0.00 0.00 77 1013.3
20260508024518 46 182 0.0 1.0 0.00 0.00 0.00 74 1013.3
20260508023518 46 138 1.0 2.0 0.00 0.00 0.00 73 1013.2
20260508022518 47 250 0.0 3.0 0.00 0.00 0.00 73 1013.3
20260508021519 47 216 0.0 2.0 0.00 0.00 0.00 70 1013.2
20260508020518 48 285 0.0 2.0 0.00 0.00 0.00 71 1013.1
20260508015519 48 191 1.0 2.0 0.00 0.00 0.00 69 1013.2
20260508014518 48 199 1.0 2.0 0.00 0.00 0.00 67 1013.3
20260508013559 49 192 0.0 1.0 0.00 0.00 0.00 65 1013.3
20260508012519 50 226 1.0 2.0 0.00 0.00 0.00 63 1013.2
20260508011538 51 216 1.0 2.0 0.00 0.00 0.00 62 1013.1
20260508010519 52 221 1.0 1.0 0.00 0.00 0.00 58 1013.0
20260508005520 52 227 0.0 1.0 0.00 0.00 0.00 55 1013.0
20260508004539 53 242 0.0 1.0 0.00 0.00 0.00 52 1012.9
20260508003519 54 222 0.0 2.0 0.00 0.00 0.00 51 1012.9
20260508002519 54 213 1.0 1.0 0.00 0.00 0.00 51 1012.9
20260508001520 55 239 1.0 3.0 0.00 0.00 0.00 50 1012.7
20260508000517 55 224 1.0 3.0 0.00 0.00 0.00 49 1012.6
20260507235520 55 234 1.0 3.0 0.00 0.00 0.00 48 1012.5
20260507234519 56 254 1.0 3.0 0.00 0.00 0.00 48 1012.5
20260507233520 56 257 1.0 4.0 0.00 0.00 0.00 48 1012.5
20260507232517 56 213 0.0 2.0 0.00 0.00 0.00 48 1012.5
20260507231517 56 225 1.0 3.0 0.00 0.00 0.00 47 1012.4
20260507230517 56 325 1.0 2.0 0.00 0.00 0.00 49 1012.4
20260507225517 56 110 0.0 1.0 0.00 0.00 0.00 50 1012.6
20260507224521 57 15 1.0 2.0 0.00 0.00 0.00 49 1012.8
20260507223601 57 360 1.0 4.0 0.00 0.00 0.00 47 1012.8
20260507222518 57 359 1.0 3.0 0.00 0.00 0.00 46 1012.8
20260507221518 58 345 1.0 3.0 0.00 0.00 0.00 47 1012.8
20260507220518 58 342 1.0 5.0 0.00 0.00 0.00 46 1012.9
20260507215518 59 4 1.0 6.0 0.00 0.00 0.00 46 1012.7
20260507214518 59 37 2.0 10.0 0.00 0.00 0.00 44 1012.4
20260507213519 59 319 1.0 4.0 0.00 0.00 0.00 45 1012.3
20260507212539 59 14 2.0 7.0 0.00 0.00 0.00 45 1012.1
20260507211518 59 61 1.0 3.0 0.00 0.00 0.00 47 1012.4
20260507210518 59 16 2.0 5.0 0.00 0.00 0.00 46 1012.2
20260507205519 59 358 2.0 7.0 0.00 0.00 0.00 45 1012.0
20260507204519 60 5 2.0 6.0 0.00 0.00 0.00 47 1012.3
20260507203518 60 341 1.0 4.0 0.00 0.00 0.00 47 1011.9
20260507202519 58 110 1.0 6.0 0.00 0.00 0.00 46 1011.8
20260507201519 58 333 1.0 3.0 0.00 0.00 0.00 48 1012.3
20260507200519 58 348 1.0 4.0 0.00 0.00 0.00 50 1012.8
20260507195516 60 358 1.0 3.0 0.00 0.00 0.00 48 1012.5
20260507194519 61 319 1.0 3.0 0.00 0.00 0.00 47 1012.3
20260507193520 59 298 1.0 4.0 0.00 0.00 0.00 48 1012.3
20260507192517 60 318 2.0 6.0 0.00 0.00 0.00 46 1012.4
20260507191517 60 313 2.0 5.0 0.00 0.00 0.00 47 1012.4
20260507190517 60 149 2.0 7.0 0.00 0.00 0.00 47 1012.5
20260507185540 60 342 2.0 7.0 0.00 0.00 0.00 48 1012.6
20260507184520 60 342 2.0 7.0 0.00 0.00 0.00 49 1012.5
20260507183517 60 349 1.0 3.0 0.00 0.00 0.00 49 1012.5
20260507182517 60 27 2.0 5.0 0.00 0.00 0.00 49 1012.6
20260507181538 59 67 2.0 5.0 0.00 0.00 0.00 52 1012.5
20260507180521 59 319 2.0 6.0 0.00 0.00 0.00 52 1012.5
20260507175519 59 16 2.0 4.0 0.00 0.00 0.00 52 1012.6
20260507174519 59 13 1.0 5.0 0.00 0.00 0.00 52 1012.7
20260507173518 59 293 2.0 6.0 0.00 0.00 0.00 51 1012.9
20260507172538 59 230 1.0 6.0 0.00 0.00 0.00 52 1012.9
20260507171519 58 5 2.0 4.0 0.00 0.00 0.00 51 1013.0
20260507170538 59 259 2.0 6.0 0.00 0.00 0.00 51 1013.2
20260507165519 58 57 2.0 4.0 0.00 0.00 0.00 50 1013.2
20260507164519 57 333 1.0 3.0 0.00 0.00 0.00 52 1013.3
20260507163518 58 320 2.0 6.0 0.00 0.00 0.00 50 1013.4
20260507162519 58 247 2.0 5.0 0.00 0.00 0.00 50 1013.3
20260507161536 57 31 2.0 6.0 0.00 0.00 0.00 53 1013.3
20260507160614 57 200 2.0 6.0 0.00 0.00 0.00 49 1013.3
20260507155519 56 189 2.0 5.0 0.00 0.00 0.00 52 1013.2
20260507154519 56 251 2.0 6.0 0.00 0.00 0.00 53 1013.2
20260507153519 56 205 2.0 6.0 0.00 0.00 0.00 52 1013.1
20260507152519 55 248 2.0 9.0 0.00 0.00 0.00 54 1013.0
20260507151537 54 77 2.0 5.0 0.00 0.00 0.00 54 1012.9
20260507150538 54 145 1.0 4.0 0.00 0.00 0.00 55 1012.9